Weather in Eschen

Liechtenstein     47°12′44″N   9°31′23″E
temp.,
°C
wind,
m/s
gust,
m/s
humid.,
%
clouds,
%
prec.,
mm/h
press.,
hPa
HPBL,
m
18 may, tue
tue1823:00+5sw2396100 2.3 1017118
02:00+5ssw249755 3.5 1018202
05:00+4ssw2397100 0.1 101889
08:00+6ssw129070 1.2 1018385
11:00+9wnw027088 0.5 10171142
14:00+9nnw2275100 1.6 1015845
17:00+8n2386100 2.0 1015540
20:00+6wsw1192100 4.5 101755
19 may, wed
wed1923:00+4sw229599 0.4 102045
02:00+1sw229564 0.6 102126
05:00+1ssw229581 0.1 102147
08:00+5ssw118784 0.3 1021189
11:00+5wsw128938 1.3 1021516
14:00+9n1275100 3.1 1018956
17:00+8nw2283100 2.9 1018770
20:00+5nw2296100 5.3 1021397
20 may, thu
thu2023:00+3sw229776 0.8 102336
02:00+3sw2396100 0.8 102381
05:00+2ssw2399100 4.1 1024209
08:00+3wsw1298100 5.0 1026376
11:00+4w1298100 2.0 1027463
14:00+9nne117763 2.6 1025944
17:00+10nnw116581 0.6 10231226
20:00+8e008021 0.8 102312
21 may, fri
fri2123:00+3s2288100 0.0 102528
02:00+3s3485100 0.0 102368
05:00+2s3480100 0.0 102275
08:00+7s3564100 0.0 1018162
11:00+15s2445100 0.0 10151209
14:00+18s3437100 0.0 10122064
17:00+18s343948 0.0 10092243
20:00+12s237187 0.1 100978
22 may, sat
sat2223:00+7s47845 0.0 1010138
02:00+6ssw4783100 0.0 1008140
05:00+6wnw1198100 3.1 101165
08:00+4nnw2399100 8.2 1012334
11:00+4ssw1197100 6.6 1013561
14:00+3s2398100 11.4 1014233
17:00+7s348588 1.6 1012432
20:00+6sse228978 2.3 1014121